To NAV CANADA Home Page Login to a new session Search on AWWS site Feedback and Comments Disclaimer Vers la page française équivalente Tips FAQ What's new on the site To the Forecasts and Observations / NOTAM section To "File a Flight Plan" website Publications and other links Update of the User's profile FIC Telephone Numbers My Weather Data Folder Route Weather Data Regional Weather Data Local Weather Data To the Forecasts and Observations / NOTAM section
Request Generated 02/24/2017 at 03:39:09 UTC . Weather information available at that time is displayed.

METAR/TAF

PANGNIRTUNG/NU    (show WxCam)

LWIS CYXP 240300Z AUTO VRB02KT M35/M40 A2977=
LWIS CYXP 240200Z AUTO 00000KT M35/M39 A2977=
LWIS CYXP 240100Z AUTO 00000KT M34/M38 A2978=

*** REMARK        : Forecast period has ended; this was the last TAF issued
*** REMARQUE : La période de prévision est échue; ceci était le dernier TAF qui a été émis
TAF CYXP 231838Z 2319/2323 VRB03KT P6SM SCT200
RMK NXT FCST WILL BE ISSUED AT 241345Z=
Your time UTC time
Weather data provided by Environment Canada and NAV CANADA